Mobile, AL

4:36 AM CDT on April 29, 2017 (GMT -0500)
Mobile Regional

Weather History for KMOB - January, 2013

Change the Weather History Date:

Sunday, January 27, 2013

  Actual Average Record
Temperature  
Mean Temperature 61 °F 51 °F  
Max Temperature 72 °F 61 °F 79 °F (1950)
Min Temperature 50 °F 40 °F 14 °F (1940)
Degree Days  
Heating Degree Days 4 14  
Month to date heating degree days 285 403  
Since 1 July heating degree days 886 1065  
Cooling Degree Days 0 0  
Month to date cooling degree days 19 0  
Year to date cooling degree days 19 0  
Growing Degree Days 11 (Base 50)    
Moisture  
Dew Point 55 °F    
Average Humidity 81    
Maximum Humidity 100    
Minimum Humidity 61    
Precipitation  
Precipitation 0.00 in 0.18 in 2.52 in (1994)
Month to date precipitation 1.96 4.90  
Year to date precipitation 1.96 4.90  
Snow  
Snow 0.00 in 0.00 in - ()
Month to date snowfall 0.0 0.0  
Since 1 July snowfall 0.0 T  
Snow Depth 0.00 in    
Sea Level Pressure  
Sea Level Pressure 30.28 in    
Wind  
Wind Speed 6 mph (SE)    
Max Wind Speed 14 mph    
Max Gust Speed 16 mph    
Visibility 7 miles    
Events      
T = Trace of Precipitation, MM = Missing Value Source: NWS Daily Summary

Daily Weather History Graph

Daily Weather History Graph

Search for Another Location

Airport or City:

Trip Planner

Search our weather history database for the weather conditions in past years. The results will help you decide how hot, cold, wet, or windy it might be!

Date:

Astronomy

Jan. 27, 2013 Rise Set
Actual Time 6:46 AM CST 5:24 PM CST
Civil Twilight 6:21 AM CST 5:50 PM CST
Nautical Twilight 5:52 AM CST 6:19 PM CST
Astronomical Twilight 5:23 AM CST 6:48 PM CST
Moon 6:11 PM CST (1/27) 6:45 AM CST (1/27)
Length of Visible Light 11h 28m
Length of Day
10h 37m
Full, 100% of the Moon is Illuminated
Jan 27
Full
Feb 3
Last Quarter
Feb 10
New
Feb 17
First Quarter
Feb 25
Full

Hourly Weather History & Observations

Time (CST) Temp. Dew Point Humidity Pressure Visibility Wind Dir Wind Speed Gust Speed Precip Events Conditions
12:56 AM 54.0 °F 51.1 °F 90% 30.26 in 9.0 mi East 3.5 mph - N/A   Scattered Clouds
1:56 AM 53.1 °F 51.1 °F 93% 30.27 in 9.0 mi East 3.5 mph - N/A   Scattered Clouds
2:56 AM 52.0 °F 50.0 °F 93% 30.26 in 7.0 mi East 3.5 mph - N/A   Scattered Clouds
3:56 AM 51.8 °F 50.0 °F 94% 30.26 in 5.0 mi Calm Calm - N/A   Scattered Clouds
4:56 AM 51.1 °F 48.9 °F 92% 30.26 in 3.0 mi Calm Calm - N/A   Scattered Clouds
5:41 AM 50.0 °F 48.2 °F 94% 30.26 in 3.0 mi Calm Calm - N/A   Partly Cloudy
5:56 AM 51.1 °F 48.9 °F 92% 30.26 in 3.0 mi Calm Calm - N/A   Partly Cloudy
6:56 AM 50.0 °F 48.0 °F 93% 30.28 in 3.0 mi Calm Calm - N/A   Partly Cloudy
7:56 AM 54.0 °F 52.0 °F 93% 30.30 in 4.0 mi East 4.6 mph - N/A   Partly Cloudy
8:45 AM 59.0 °F 55.4 °F 88% 30.32 in 6.0 mi ESE 6.9 mph - N/A   Mostly Cloudy
8:56 AM 59.0 °F 55.0 °F 87% 30.32 in 7.0 mi East 8.1 mph - N/A   Mostly Cloudy
9:56 AM 62.1 °F 55.9 °F 80% 30.33 in 7.0 mi ESE 10.4 mph - N/A   Mostly Cloudy
10:56 AM 64.0 °F 57.9 °F 80% 30.32 in 10.0 mi ESE 8.1 mph - N/A   Mostly Cloudy
11:11 AM 66.2 °F 57.2 °F 73% 30.31 in 10.0 mi ESE 5.8 mph - N/A   Mostly Cloudy
11:41 AM 66.2 °F 57.2 °F 73% 30.30 in 10.0 mi ESE 9.2 mph - N/A   Mostly Cloudy
11:56 AM 68.0 °F 57.9 °F 70% 30.30 in 10.0 mi SE 8.1 mph - N/A   Mostly Cloudy
12:26 PM 69.8 °F 57.2 °F 64% 30.28 in 10.0 mi SSE 10.4 mph - N/A   Mostly Cloudy
12:56 PM 70.0 °F 57.9 °F 65% 30.27 in 10.0 mi SE 10.4 mph - N/A   Mostly Cloudy
1:56 PM 71.1 °F 57.9 °F 63% 30.25 in 10.0 mi SE 10.4 mph - N/A   Mostly Cloudy
2:56 PM 71.1 °F 57.0 °F 61% 30.25 in 10.0 mi SE 10.4 mph - N/A   Mostly Cloudy
3:56 PM 69.1 °F 57.9 °F 68% 30.25 in 10.0 mi SE 10.4 mph - N/A   Mostly Cloudy
4:56 PM 66.0 °F 57.0 °F 73% 30.26 in 10.0 mi SSE 9.2 mph - N/A   Mostly Cloudy
5:56 PM 63.0 °F 57.0 °F 81% 30.26 in 10.0 mi SSE 6.9 mph - N/A   Scattered Clouds
6:56 PM 61.0 °F 57.9 °F 90% 30.27 in 8.0 mi SE 6.9 mph - N/A   Scattered Clouds
7:56 PM 59.0 °F 57.2 °F 94% 30.28 in 6.0 mi SE 5.8 mph - N/A   Partly Cloudy
8:56 PM 59.0 °F 57.0 °F 93% 30.28 in 5.0 mi SE 5.8 mph - N/A   Scattered Clouds
9:56 PM 57.2 °F 55.4 °F 94% 30.28 in 4.0 mi SE 4.6 mph - N/A   Scattered Clouds
10:56 PM 57.9 °F 57.0 °F 97% 30.26 in 4.0 mi SE 5.8 mph - N/A   Scattered Clouds
11:43 PM 57.2 °F 53.6 °F 88% 30.27 in 2.5 mi Calm Calm - N/A   Scattered Clouds
11:56 PM 55.9 °F 55.0 °F 97% 30.27 in 2.5 mi Calm Calm - N/A   Scattered Clouds